Location: Heilwood
(40.6210°N, 78.9150°W)
Time: 11:44:11
(UTC-04:00)

BREEZE-M DEB (TANK) - Visible Passes

Search period start: 26 May 2015 00:00
Search period end: 05 June 2015 00:00
Orbit: 321 x 15945 km, 49.5° (Epoch: 25 May)

Date Brightness Start Highest point End Pass type
(mag) Time Alt. Az. Time Alt. Az. Time Alt. Az.
26 May 7.7 02:55:50 10° W 04:03:00 - SSW 03:14:07 17° SW visible
26 May 5.3 21:58:42 10° WNW 22:05:38 88° SSW 22:33:52 18° SE visible
27 May 7.8 03:09:11 10° W 04:15:27 - SSW 03:23:49 14° SW visible
27 May 5.4 22:08:49 10° WNW 22:16:07 81° SW 22:43:38 20° SE visible
28 May 7.9 03:25:45 10° WSW 04:27:43 - SSW 03:33:36 11° WSW visible
28 May 5.6 22:18:56 10° WNW 22:26:38 75° SW 22:53:28 22° SE visible
29 May 5.7 22:29:03 10° WNW 22:37:12 69° SW 23:03:23 23° SE visible
30 May 5.9 22:39:11 10° WNW 22:47:48 63° SW 23:13:20 24° SSE visible
31 May 6.1 22:49:19 10° WNW 22:58:27 58° SW 23:23:22 25° SSE visible
01 Jun 6.3 22:59:29 10° WNW 23:09:11 53° SW 23:33:27 25° SSE visible
02 Jun 6.5 23:09:39 10° WNW 23:19:59 48° SW 23:43:35 25° SSE visible
03 Jun 6.7 23:19:52 10° WNW 23:30:51 44° SW 23:53:47 25° S visible
